This demonstration page uses our WeatherBlox Daily Observations layout. Learn more.

Left ArrowRight Arrow

Hourly Observations for August 7, 2018

Temp ( °F °C ) Dew Point ( °F °C ) Humidity (%) Winds ( mph kmh ) Pressure ( in mb ) Visibility ( mi km ) Precip ( " mm )
12:17 am 00:17 Cloudy 77 25 75 24 94 94 N 6 9 30 1016 10 16.0934 N/A
12:36 am 00:36 Cloudy 75 24 72 22 89 89 N 12 19 30.03 1017 10 16.0934 N/A
12:56 am 00:56 Cloudy 73 23 72 22 94 94 NNE 10 17 30.03 1017 10 16.0934 N/A
1:17 am 01:17 Cloudy 70 21 70 21 100 100 Calm 30.06 1018 10 16.0934 N/A
1:36 am 01:36 Mostly Cloudy 70 21 70 21 100 100 W 26 43 30.09 1019 7 11.26538 N/A
1:57 am 01:57 Mostly Cloudy 68 20 68 20 100 100 WSW 5 7 30.09 1019 4 6.43736 N/A
2:16 am 02:16 Cloudy 68 20 68 20 100 100 SSW 3 6 30.06 1018 7 11.26538 N/A
2:37 am 02:37 Cloudy 68 20 68 20 100 100 SW 6 9 30.03 1017 7 11.26538 N/A
2:57 am 02:57 Mostly Cloudy 68 20 68 20 100 100 SSW 6 9 30.03 1017 10 16.0934 N/A
3:16 am 03:16 Partly Cloudy 66 19 66 19 100 100 SSW 6 9 30.03 1017 10 16.0934 N/A
3:37 am 03:37 Clear 68 20 68 20 100 100 SE 5 7 30.03 1017 10 16.0934 N/A
3:56 am 03:56 Partly Cloudy 68 20 68 20 100 100 Calm 30.03 1017 10 16.0934 N/A
4:17 am 04:17 Mostly Cloudy 68 20 68 20 100 100 SE 5 7 30.03 1017 10 16.0934 N/A
4:36 am 04:36 Partly Cloudy 68 20 68 20 100 100 ESE 6 9 30.03 1017 10 16.0934 N/A
4:56 am 04:56 Mostly Cloudy 68 20 68 20 100 100 SE 7 11 30.03 1017 10 16.0934 N/A
5:17 am 05:17 Partly Cloudy 68 20 68 20 100 100 SSE 5 7 30.03 1017 10 16.0934 N/A
5:36 am 05:36 Mostly Cloudy 68 20 68 20 100 100 SSE 10 17 30.03 1017 7 11.26538 N/A
5:57 am 05:57 Mostly Cloudy 68 20 68 20 100 100 S 8 13 30.03 1017 10 16.0934 N/A
6:16 am 06:16 Cloudy 68 20 68 20 100 100 SSE 8 13 30.03 1017 3 4.82802 N/A
6:36 am 06:36 Partly Cloudy 68 20 68 20 100 100 SSE 8 13 30.03 1017 10 16.0934 N/A
6:57 am 06:57 Mostly Cloudy 68 20 68 20 100 100 S 7 11 30.03 1017 10 16.0934 N/A
7:16 am 07:16 Mostly Cloudy 66 19 66 19 100 100 SSW 6 9 30.03 1017 10 16.0934 N/A
7:37 am 07:37 Partly Cloudy 68 20 68 20 100 100 S 7 11 30.03 1017 10 16.0934 N/A
7:56 am 07:56 Partly Cloudy 68 20 68 20 100 100 SW 8 13 30.03 1017 10 16.0934 N/A
8:16 am 08:16 Sunny 68 20 68 20 100 100 SW 10 17 30.03 1017 10 16.0934 N/A
8:37 am 08:37 Partly Cloudy 70 21 70 21 100 100 SW 10 17 30 1016 10 16.0934 N/A
8:56 am 08:56 Cloudy 70 21 70 21 100 100 SW 6 9 30 1016 10 16.0934 N/A
9:16 am 09:16 Cloudy 70 21 70 21 100 100 SW 12 19 30 1016 10 16.0934 N/A
9:37 am 09:37 Cloudy 70 21 70 21 100 100 SW 13 20 30 1016 7 11.26538 N/A
9:56 am 09:56 Cloudy 68 20 68 20 100 100 WSW 9 15 30.03 1017 10 16.0934 N/A
10:17 am 10:17 Cloudy 68 20 68 20 100 100 WSW 8 13 30.03 1017 10 16.0934 N/A
10:36 am 10:36 Cloudy 68 20 68 20 100 100 SSW 10 17 30.03 1017 10 16.0934 N/A
10:56 am 10:56 Cloudy 70 21 70 21 100 100 SSW 7 11 29.97 1015 10 16.0934 N/A
11:17 am 11:17 Mostly Cloudy 70 21 70 21 100 100 Calm 29.97 1015 10 16.0934 N/A
11:36 am 11:36 Partly Cloudy 70 21 70 21 100 100 WSW 3 6 29.97 1015 10 16.0934 N/A
11:56 am 11:56 Sunny 72 22 72 22 100 100 SW 6 9 29.97 1015 10 16.0934 N/A
12:17 pm 12:17 Sunny 73 23 73 23 100 100 SW 5 7 29.97 1015 10 16.0934 N/A
12:36 pm 12:36 Sunny 75 24 73 23 94 94 WSW 6 9 29.97 1015 10 16.0934 N/A
12:57 pm 12:57 Sunny 77 25 73 23 89 89 WSW 3 6 29.97 1015 10 16.0934 N/A
1:16 pm 13:16 Sunny 77 25 73 23 89 89 WSW 3 6 29.97 1015 10 16.0934 N/A
1:37 pm 13:37 Sunny 77 25 75 24 94 94 S 3 6 30 1016 10 16.0934 N/A
1:57 pm 13:57 Sunny 79 26 77 25 94 94 Calm 30 1016 10 16.0934 N/A
2:16 pm 14:16 Sunny 81 27 75 24 84 84 SW 7 11 30 1016 10 16.0934 N/A
2:37 pm 14:37 Sunny 81 27 75 24 84 84 SW 8 13 30 1016 10 16.0934 N/A
2:56 pm 14:56 Mostly Cloudy 81 27 75 24 84 84 WSW 13 20 29.97 1015 10 16.0934 N/A
3:16 pm 15:16 Mostly Cloudy 82 28 75 24 79 79 W 15 24 29.97 1015 10 16.0934 N/A
3:37 pm 15:37 Partly Cloudy 84 29 77 25 79 79 W 15 24 29.97 1015 10 16.0934 N/A
3:56 pm 15:56 Mostly Cloudy 79 26 73 23 84 84 WNW 13 20 29.94 1014 10 16.0934 N/A
4:17 pm 16:17 Mostly Cloudy 81 27 77 25 89 89 W 8 13 29.94 1014 10 16.0934 N/A
4:36 pm 16:36 Mostly Cloudy 82 28 77 25 84 84 W 10 17 29.94 1014 10 16.0934 N/A
4:57 pm 16:57 Cloudy 82 28 75 24 79 79 WNW 12 19 29.94 1014 10 16.0934 N/A
5:17 pm 17:17 Partly Cloudy 82 28 75 24 79 79 W 7 11 29.91 1013 10 16.0934 N/A
5:36 pm 17:36 Mostly Cloudy 82 28 75 24 79 79 WSW 9 15 29.91 1013 10 16.0934 N/A
5:56 pm 17:56 Partly Cloudy 82 28 75 24 79 79 W 8 13 29.91 1013 10 16.0934 N/A
6:16 pm 18:16 Partly Cloudy 82 28 75 24 79 79 SW 6 9 29.91 1013 10 16.0934 N/A
6:37 pm 18:37 Mostly Cloudy 81 27 75 24 84 84 WSW 3 6 29.91 1013 10 16.0934 N/A
6:56 pm 18:56 Mostly Cloudy 81 27 75 24 84 84 SSW 6 9 29.91 1013 10 16.0934 N/A
7:17 pm 19:17 Mostly Cloudy 79 26 75 24 89 89 SW 7 11 29.94 1014 10 16.0934 N/A
7:36 pm 19:36 Partly Cloudy 79 26 75 24 89 89 WSW 7 11 29.94 1014 10 16.0934 N/A
7:56 pm 19:56 Partly Cloudy 79 26 75 24 89 89 SW 9 15 29.94 1014 10 16.0934 N/A
8:17 pm 20:17 Sunny 77 25 75 24 94 94 SW 9 15 29.94 1014 10 16.0934 N/A
8:36 pm 20:36 Sunny 77 25 75 24 94 94 SW 9 15 29.94 1014 10 16.0934 N/A
8:57 pm 20:57 Clear 77 25 75 24 94 94 WSW 8 13 29.94 1014 10 16.0934 N/A
9:16 pm 21:16 Clear 75 24 75 24 100 100 SW 6 9 29.94 1014 10 16.0934 N/A
9:37 pm 21:37 Mostly Cloudy 75 24 75 24 100 100 SW 7 11 29.94 1014 10 16.0934 N/A
9:56 pm 21:56 Mostly Cloudy 75 24 73 23 94 94 SW 10 17 29.97 1015 10 16.0934 N/A
10:16 pm 22:16 Partly Cloudy 75 24 73 23 94 94 SW 6 9 29.97 1015 10 16.0934 N/A
10:37 pm 22:37 Clear 73 23 73 23 100 100 SW 6 9 29.94 1014 10 16.0934 N/A
10:56 pm 22:56 Clear 73 23 73 23 100 100 WSW 6 9 29.97 1015 10 16.0934 N/A
11:17 pm 23:17 Clear 73 23 73 23 100 100 WSW 5 7 29.97 1015 10 16.0934 N/A
11:36 pm 23:36 Partly Cloudy 72 22 72 22 100 100 SW 6 9 29.97 1015 10 16.0934 N/A
11:57 pm 23:57 Partly Cloudy 72 22 72 22 100 100 Calm 29.97 1015 10 16.0934 N/A

Powered by AerisWeather